Fecha;EUA;CER;SPREAD (EUA - CER)
04-01-2016;8.04;0.53;"7,51"
05-01-2016;8.01;0.53;"7,48"
06-01-2016;7.75;0.53;"7,22"
07-01-2016;7.55;0.53;"7,02"
08-01-2016;7.41;0.53;"6,88"
11-01-2016;7.15;0.52;"6,63"
12-01-2016;7.14;0.51;"6,63"
13-01-2016;7.24;0.53;"6,71"
14-01-2016;7.10;0.52;"6,58"
15-01-2016;6.68;0.43;"6,25"
18-01-2016;6.74;0.42;"6,32"
19-01-2016;6.82;0.44;"6,38"
20-01-2016;6.33;0.44;"5,89"
21-01-2016;6.17;0.43;"5,74"
22-01-2016;6.31;0.42;"5,89"
25-01-2016;5.90;0.41;"5,49"
26-01-2016;6.07;0.40;"5,67"
27-01-2016;5.91;0.40;"5,51"
28-01-2016;6.09;0.43;"5,66"
29-01-2016;6.03;0.43;"5,6"
01-02-2016;5.70;0.42;"5,28"
02-02-2016;5.82;0.39;"5,43"
03-02-2016;5.62;0.40;"5,22"
04-02-2016;5.61;0.40;"5,21"
05-02-2016;5.55;0.40;"5,15"
08-02-2016;5.23;0.39;"4,84"
09-02-2016;4.95;0.39;"4,56"
10-02-2016;4.88;0.39;"4,49"
11-02-2016;4.74;0.39;"4,35"
12-02-2016;5.05;0.40;"4,65"
15-02-2016;4.79;0.40;"4,39"
16-02-2016;4.67;0.40;"4,27"
17-02-2016;5.07;0.38;"4,69"
18-02-2016;5.24;0.38;"4,86"
19-02-2016;5.15;0.38;"4,77"
22-02-2016;5.40;0.39;"5,01"
23-02-2016;4.89;0.39;"4,5"
24-02-2016;4.85;0.38;"4,47"
25-02-2016;5.07;0.38;"4,69"
26-02-2016;5.00;0.39;"4,61"
29-02-2016;5.00;0.38;"4,62"
01-03-2016;5.01;0.38;"4,63"
02-03-2016;4.96;0.39;"4,57"
03-03-2016;4.91;0.38;"4,53"
04-03-2016;4.92;0.39;"4,53"
07-03-2016;5.08;0.38;"4,7"
08-03-2016;5.01;0.39;"4,62"
09-03-2016;5.07;0.40;"4,67"
10-03-2016;4.90;0.38;"4,52"
11-03-2016;4.98;0.39;"4,59"
14-03-2016;4.88;0.38;"4,5"
15-03-2016;4.91;0.42;"4,49"
16-03-2016;4.95;0.39;"4,56"
17-03-2016;5.00;0.39;"4,61"
18-03-2016;4.94;0.40;"4,54"
21-03-2016;4.90;0.40;"4,5"
22-03-2016;4.81;0.39;"4,42"
23-03-2016;4.78;0.39;"4,39"
24-03-2016;4.84;0.40;"4,44"
29-03-2016;4.77;0.40;"4,37"
30-03-2016;4.95;0.39;"4,56"
31-03-2016;5.20;0.39;"4,81"
01-04-2016;5.19;0.41;"4,78"
04-04-2016;5.32;0.42;"4,9"
05-04-2016;5.21;0.44;"4,77"
06-04-2016;5.30;0.42;"4,88"
07-04-2016;5.27;0.43;"4,84"
08-04-2016;5.41;0.44;"4,97"
11-04-2016;5.57;0.46;"5,11"
12-04-2016;5.58;0.46;"5,12"
13-04-2016;5.53;0.44;"5,09"
14-04-2016;5.61;0.40;"5,21"
15-04-2016;5.47;0.43;"5,04"
18-04-2016;5.46;0.39;"5,07"
19-04-2016;5.55;0.41;"5,14"
20-04-2016;5.50;0.41;"5,09"
21-04-2016;5.74;0.42;"5,32"
22-04-2016;5.96;0.43;"5,53"
25-04-2016;5.88;0.42;"5,46"
26-04-2016;6.61;0.42;"6,19"
27-04-2016;6.82;0.42;"6,4"
28-04-2016;6.32;0.44;"5,88"
29-04-2016;6.16;0.44;"5,72"
02-05-2016;6.11;0.44;"5,67"
03-05-2016;5.96;0.43;"5,53"
04-05-2016;6.12;0.42;"5,7"
05-05-2016;6.19;0.43;"5,76"
06-05-2016;5.84;0.42;"5,42"
09-05-2016;5.68;0.42;"5,26"
10-05-2016;5.88;0.43;"5,45"
11-05-2016;6.00;0.43;"5,57"
12-05-2016;5.80;0.42;"5,38"
13-05-2016;5.83;0.42;"5,41"
16-05-2016;6.09;0.41;"5,68"
17-05-2016;6.02;0.42;"5,6"
18-05-2016;6.03;0.42;"5,61"
19-05-2016;5.97;0.41;"5,56"
20-05-2016;5.94;0.41;"5,53"
23-05-2016;5.72;0.41;"5,31"
24-05-2016;5.78;0.41;"5,37"
25-05-2016;5.84;0.40;"5,44"
26-05-2016;6.01;0.41;"5,6"
27-05-2016;6.02;0.41;"5,61"
30-05-2016;6.10;0.41;"5,69"
31-05-2016;6.08;0.41;"5,67"
01-06-2016;5.95;0.41;"5,54"
02-06-2016;6.01;0.40;"5,61"
03-06-2016;5.93;0.40;"5,53"
06-06-2016;6.19;0.40;"5,79"
07-06-2016;6.09;0.40;"5,69"
08-06-2016;6.08;0.41;"5,67"
09-06-2016;6.10;0.40;"5,7"
10-06-2016;5.94;0.40;"5,54"
13-06-2016;5.84;0.40;"5,44"
14-06-2016;5.85;0.40;"5,45"
15-06-2016;5.90;0.40;"5,5"
16-06-2016;5.72;0.40;"5,32"
17-06-2016;5.66;0.39;"5,27"
20-06-2016;5.84;0.39;"5,45"
21-06-2016;5.54;0.39;"5,15"
22-06-2016;5.67;0.39;"5,28"
23-06-2016;5.66;0.39;"5,27"
24-06-2016;4.97;0.39;"4,58"
27-06-2016;4.76;0.38;"4,38"
28-06-2016;4.68;0.38;"4,3"
29-06-2016;4.53;0.38;"4,15"
30-06-2016;4.48;0.39;"4,09"
01-07-2016;4.61;0.39;"4,22"
04-07-2016;4.96;0.38;"4,58"
05-07-2016;4.68;0.39;"4,29"
06-07-2016;4.58;0.40;"4,18"
07-07-2016;4.57;0.39;"4,18"
08-07-2016;4.54;0.40;"4,14"
11-07-2016;4.43;0.40;"4,03"
12-07-2016;4.62;0.40;"4,22"
13-07-2016;4.78;0.41;"4,37"
14-07-2016;4.76;0.40;"4,36"
15-07-2016;4.96;0.41;"4,55"
18-07-2016;4.84;0.39;"4,45"
19-07-2016;4.66;0.40;"4,26"
20-07-2016;4.67;0.40;"4,27"
21-07-2016;4.64;0.39;"4,25"
22-07-2016;4.55;0.40;"4,15"
25-07-2016;4.58;0.40;"4,18"
26-07-2016;4.51;0.39;"4,12"
27-07-2016;4.52;0.40;"4,12"
28-07-2016;4.50;0.40;"4,1"
29-07-2016;4.41;0.41;4
01-08-2016;4.37;0.40;"3,97"
02-08-2016;4.40;0.40;4
03-08-2016;4.60;0.41;"4,19"
04-08-2016;4.68;0.42;"4,26"
08-08-2016;4.92;0.42;"4,5"
09-08-2016;4.86;0.41;"4,45"
10-08-2016;4.76;0.40;"4,36"
11-08-2016;4.87;0.41;"4,46"
12-08-2016;4.89;0.40;"4,49"
15-08-2016;4.80;0.40;"4,4"
16-08-2016;4.69;0.39;"4,3"
17-08-2016;4.48;0.39;"4,09"
18-08-2016;4.68;0.40;"4,28"
19-08-2016;4.75;0.40;"4,35"
22-08-2016;4.89;0.41;"4,48"
23-08-2016;4.66;0.41;"4,25"
24-08-2016;4.61;0.41;"4,2"
25-08-2016;4.68;0.41;"4,27"
26-08-2016;4.70;0.41;"4,29"
29-08-2016;4.68;0.41;"4,27"
30-08-2016;4.54;0.40;"4,14"
31-08-2016;4.46;0.39;"4,07"
01-09-2016;4.39;0.39;4
02-09-2016;4.08;0.38;"3,7"
05-09-2016;3.96;0.39;"3,57"
06-09-2016;4.12;0.38;"3,74"
07-09-2016;4.00;0.38;"3,62"
08-09-2016;4.05;0.38;"3,67"
09-09-2016;4.07;0.38;"3,69"
12-09-2016;4.02;0.38;"3,64"
13-09-2016;4.01;0.39;"3,62"
14-09-2016;3.98;0.38;"3,6"
15-09-2016;4.14;0.37;"3,77"
16-09-2016;4.36;0.37;"3,99"
19-09-2016;4.38;0.39;"3,99"
20-09-2016;4.17;0.38;"3,79"
21-09-2016;4.19;0.38;"3,81"
22-09-2016;4.40;0.38;"4,02"
23-09-2016;4.50;0.38;"4,12"
23-09-2016;4.96;0.38;"4,58"
26-09-2016;4.60;0.38;"4,22"
27-09-2016;4.45;0.37;"4,08"
28-09-2016;4.94;0.38;"4,56"
29-09-2016;5.03;0.38;"4,65"
03-10-2016;5.30;0.38;"4,92"
04-10-2016;5.23;0.38;"4,85"
05-10-2016;5.45;0.38;"5,07"
06-10-2016;5.82;0.39;"5,43"
07-10-2016;5.67;0.38;"5,29"
10-10-2016;5.65;0.38;"5,27"
11-10-2016;5.45;0.38;"5,07"
12-10-2016;5.51;0.38;"5,13"
13-10-2016;5.63;0.38;"5,25"
14-10-2016;5.78;0.38;"5,4"
17-10-2016;5.84;0.37;"5,47"
18-10-2016;5.92;0.38;"5,54"
19-10-2016;5.65;0.38;"5,27"
20-10-2016;5.56;0.38;"5,18"
21-10-2016;5.85;0.39;"5,46"
24-10-2016;5.78;0.38;"5,4"
25-10-2016;5.76;0.38;"5,38"
26-10-2016;5.92;0.38;"5,54"
27-10-2016;5.81;0.37;"5,44"
28-10-2016;5.87;0.38;"5,49"
31-10-2016;5.88;0.38;"5,5"
01-11-2016;6.01;0.38;"5,63"
02-11-2016;6.24;0.39;"5,85"
03-11-2016;6.47;0.38;"6,09"
04-11-2016;6.40;0.39;"6,01"
07-11-2016;6.20;0.37;"5,83"
08-11-2016;6.14;0.36;"5,78"
09-11-2016;6.12;0.36;"5,76"
10-11-2016;5.90;0.36;"5,54"
11-11-2016;5.68;0.37;"5,31"
14-11-2016;5.41;0.36;"5,05"
15-11-2016;5.73;0.37;"5,36"
16-11-2016;5.55;0.37;"5,18"
17-11-2016;5.90;0.38;"5,52"
18-11-2016;5.59;0.37;"5,22"
21-11-2016;5.48;0.34;"5,14"
22-11-2016;5.51;0.34;"5,17"
23-11-2016;5.39;0.31;"5,08"
24-11-2016;5.34;0.30;"5,04"
25-11-2016;5.00;0.30;"4,7"
28-11-2016;4.74;0.29;"4,45"
29-11-2016;4.55;0.27;"4,28"
30-11-2016;4.61;0.28;"4,33"
01-12-2016;4.46;0.30;"4,16"
02-12-2016;4.30;0.31;"3,99"
05-12-2016;4.35;0.32;"4,03"
06-12-2016;4.50;0.30;"4,2"
07-12-2016;4.30;0.29;"4,01"
08-12-2016;4.58;0.30;"4,28"
09-12-2016;4.46;0.30;"4,16"
12-12-2016;4.86;0.30;"4,56"
13-12-2016;4.78;0.31;"4,47"
14-12-2016;5.00;0.31;"4,69"
15-12-2016;4.79;0.31;"4,48"
16-12-2016;4.88;0.31;"4,57"
19-12-2016;5.11;0.31;"4,8"
20-12-2016;5.22;0.32;"4,9"
21-12-2016;5.82;0.33;"5,49"
22-12-2016;6.05;0.33;"5,72"
23-12-2016;6.31;0.34;"5,97"
27-12-2016;6.25;0.29;"5,96"
28-12-2016;6.32;0.28;"6,04"
29-12-2016;6.33;0.28;"6,05"
30-12-2016;6.54;0.27;"6,27"
